Year,Month,Day,Hour,Minute,Value (Times are PST for temperature in C)
2015,12,04,00,00,7.30
2015,12,04,00,01,7.30
2015,12,04,00,02,7.30
2015,12,04,00,03,7.30
2015,12,04,00,04,7.30
2015,12,04,00,05,7.20
2015,12,04,00,06,7.20
2015,12,04,00,07,7.20
2015,12,04,00,08,7.20
2015,12,04,00,09,7.20
2015,12,04,00,10,7.20
2015,12,04,00,11,7.20
2015,12,04,00,12,7.20
2015,12,04,00,13,7.20
2015,12,04,00,14,7.20
2015,12,04,00,15,7.20
2015,12,04,00,16,7.20
2015,12,04,00,17,7.20
2015,12,04,00,18,7.20
2015,12,04,00,19,7.20
2015,12,04,00,20,7.20
2015,12,04,00,21,7.20
2015,12,04,00,22,7.20
2015,12,04,00,23,7.20
2015,12,04,00,24,7.20
2015,12,04,00,25,7.20
2015,12,04,00,26,7.20
2015,12,04,00,27,7.20
2015,12,04,00,28,7.10
2015,12,04,00,29,7.10
2015,12,04,00,30,7.10
2015,12,04,00,31,7.10
2015,12,04,00,32,7.10
2015,12,04,00,33,7.10
2015,12,04,00,34,7.10
2015,12,04,00,35,7.10
2015,12,04,00,36,7.10
2015,12,04,00,37,7.10
2015,12,04,00,38,7.10
2015,12,04,00,39,7.20
2015,12,04,00,40,7.20
2015,12,04,00,41,7.20
2015,12,04,00,42,7.10
2015,12,04,00,43,7.10
2015,12,04,00,44,7.10
2015,12,04,00,45,7.10
2015,12,04,00,46,7.10
2015,12,04,00,47,7.00
2015,12,04,00,48,7.00
2015,12,04,00,49,7.00
2015,12,04,00,50,7.00
2015,12,04,00,51,7.00
2015,12,04,00,52,7.10
2015,12,04,00,53,7.10
2015,12,04,00,54,7.10
2015,12,04,00,55,7.10
2015,12,04,00,56,7.10
2015,12,04,00,57,7.10
2015,12,04,00,58,7.10
2015,12,04,00,59,7.10
2015,12,04,01,00,7.10
2015,12,04,01,01,7.10
2015,12,04,01,02,7.10
2015,12,04,01,03,7.10
2015,12,04,01,04,7.10
2015,12,04,01,05,7.20
2015,12,04,01,06,7.20
2015,12,04,01,07,7.20
2015,12,04,01,08,7.20
2015,12,04,01,09,7.20
2015,12,04,01,10,7.20
2015,12,04,01,11,7.20
2015,12,04,01,12,7.20
2015,12,04,01,13,7.20
2015,12,04,01,14,7.20
2015,12,04,01,15,7.20
2015,12,04,01,16,7.20
2015,12,04,01,17,7.20
2015,12,04,01,18,7.20
2015,12,04,01,19,7.20
2015,12,04,01,20,7.20
2015,12,04,01,21,7.20
2015,12,04,01,22,7.20
2015,12,04,01,23,7.20
2015,12,04,01,24,7.20
2015,12,04,01,25,7.20
2015,12,04,01,26,7.20
2015,12,04,01,27,7.20
2015,12,04,01,28,7.20
2015,12,04,01,29,7.20
2015,12,04,01,30,7.20
2015,12,04,01,31,7.30
2015,12,04,01,32,7.30
2015,12,04,01,33,7.30
2015,12,04,01,34,7.30
2015,12,04,01,35,7.40
2015,12,04,01,36,7.40
2015,12,04,01,37,7.40
2015,12,04,01,38,7.40
2015,12,04,01,39,7.40
2015,12,04,01,40,7.30
2015,12,04,01,41,7.30
2015,12,04,01,42,7.30
2015,12,04,01,43,7.30
2015,12,04,01,44,7.30
2015,12,04,01,45,7.30
2015,12,04,01,46,7.30
2015,12,04,01,47,7.30
2015,12,04,01,48,7.20
2015,12,04,01,49,7.20
2015,12,04,01,50,7.20
2015,12,04,01,51,7.20
2015,12,04,01,52,7.20
2015,12,04,01,53,7.20
2015,12,04,01,54,7.20
2015,12,04,01,55,7.20
2015,12,04,01,56,7.10
2015,12,04,01,57,7.10
2015,12,04,01,58,7.10
2015,12,04,01,59,7.10
2015,12,04,02,00,7.00
2015,12,04,02,01,7.00
2015,12,04,02,02,7.00
2015,12,04,02,03,7.00
2015,12,04,02,04,7.00
2015,12,04,02,05,6.90
2015,12,04,02,06,6.90
2015,12,04,02,07,6.90
2015,12,04,02,08,6.90
2015,12,04,02,09,7.00
2015,12,04,02,10,7.00
2015,12,04,02,11,7.00
2015,12,04,02,12,7.00
2015,12,04,02,13,7.00
2015,12,04,02,14,7.00
2015,12,04,02,15,7.00
2015,12,04,02,16,7.00
2015,12,04,02,17,7.00
2015,12,04,02,18,7.00
2015,12,04,02,19,7.00
2015,12,04,02,20,7.00
2015,12,04,02,21,7.00
2015,12,04,02,22,7.00
2015,12,04,02,23,7.00
2015,12,04,02,24,7.00
2015,12,04,02,25,7.00
2015,12,04,02,26,7.00
2015,12,04,02,27,7.00
2015,12,04,02,28,6.90
2015,12,04,02,29,6.90
2015,12,04,02,30,6.90
2015,12,04,02,31,6.90
2015,12,04,02,32,6.90
2015,12,04,02,33,6.90
2015,12,04,02,34,6.90
2015,12,04,02,35,6.90
2015,12,04,02,36,6.90
2015,12,04,02,37,6.80
2015,12,04,02,38,6.80
2015,12,04,02,39,6.80
2015,12,04,02,40,6.80
2015,12,04,02,41,6.80
2015,12,04,02,42,6.80
2015,12,04,02,43,6.80
2015,12,04,02,44,6.80
2015,12,04,02,45,6.80
2015,12,04,02,46,6.80
2015,12,04,02,47,6.80
2015,12,04,02,48,6.80
2015,12,04,02,49,6.90
2015,12,04,02,50,6.90
2015,12,04,02,51,6.90
2015,12,04,02,52,6.90
2015,12,04,02,53,6.90
2015,12,04,02,54,6.90
2015,12,04,02,55,6.90
2015,12,04,02,56,6.90
2015,12,04,02,57,6.90
2015,12,04,02,58,6.90
2015,12,04,02,59,6.90
2015,12,04,03,00,6.90
2015,12,04,03,01,6.90
2015,12,04,03,02,6.90
2015,12,04,03,03,6.90
2015,12,04,03,04,6.90
2015,12,04,03,05,6.90
2015,12,04,03,06,6.90
2015,12,04,03,07,6.90
2015,12,04,03,08,6.90
2015,12,04,03,09,6.90
2015,12,04,03,10,6.90
2015,12,04,03,11,6.90
2015,12,04,03,12,6.90
2015,12,04,03,13,6.90
2015,12,04,03,14,6.90
2015,12,04,03,15,6.90
2015,12,04,03,16,6.90
2015,12,04,03,17,6.90
2015,12,04,03,18,6.90
2015,12,04,03,19,6.90
2015,12,04,03,20,6.90
2015,12,04,03,21,6.90
2015,12,04,03,22,6.90
2015,12,04,03,23,6.90
2015,12,04,03,24,6.90
2015,12,04,03,25,6.90
2015,12,04,03,26,6.90
2015,12,04,03,27,6.90
2015,12,04,03,28,6.90
2015,12,04,03,29,6.90
2015,12,04,03,30,6.90
2015,12,04,03,31,6.90
2015,12,04,03,32,6.90
2015,12,04,03,33,6.90
2015,12,04,03,34,6.90
2015,12,04,03,35,6.90
2015,12,04,03,36,7.00
2015,12,04,03,37,7.00
2015,12,04,03,38,7.00
2015,12,04,03,39,7.00
2015,12,04,03,40,7.00
2015,12,04,03,41,7.00
2015,12,04,03,42,7.00
2015,12,04,03,43,7.00
2015,12,04,03,44,7.00
2015,12,04,03,45,6.90
2015,12,04,03,46,6.90
2015,12,04,03,47,6.90
2015,12,04,03,48,6.90
2015,12,04,03,49,6.90
2015,12,04,03,50,6.90
2015,12,04,03,51,6.90
2015,12,04,03,52,6.90
2015,12,04,03,53,6.90
2015,12,04,03,54,6.90
2015,12,04,03,55,6.90
2015,12,04,03,56,6.90
2015,12,04,03,57,6.90
2015,12,04,03,58,6.90
2015,12,04,03,59,6.90
2015,12,04,04,00,6.90
2015,12,04,04,01,6.90
2015,12,04,04,02,6.90
2015,12,04,04,03,6.90
2015,12,04,04,04,6.90
2015,12,04,04,05,6.80
2015,12,04,04,06,6.80
2015,12,04,04,07,6.80
2015,12,04,04,08,6.80
2015,12,04,04,09,6.80
2015,12,04,04,10,6.80
2015,12,04,04,11,6.80
2015,12,04,04,12,6.80
2015,12,04,04,13,6.80
2015,12,04,04,14,6.80
2015,12,04,04,15,6.80
2015,12,04,04,16,6.80
2015,12,04,04,17,6.80
2015,12,04,04,18,6.80
2015,12,04,04,19,6.80
2015,12,04,04,20,6.80
2015,12,04,04,21,6.80
2015,12,04,04,22,6.70
2015,12,04,04,23,6.70
2015,12,04,04,24,6.70
2015,12,04,04,25,6.70
2015,12,04,04,26,6.70
2015,12,04,04,27,6.60
2015,12,04,04,28,6.60
2015,12,04,04,29,6.60
2015,12,04,04,30,6.60
2015,12,04,04,31,6.60
2015,12,04,04,32,6.60
2015,12,04,04,33,6.60
2015,12,04,04,34,6.50
2015,12,04,04,35,6.50
2015,12,04,04,36,6.50
2015,12,04,04,37,6.50
2015,12,04,04,38,6.40
2015,12,04,04,39,6.40
2015,12,04,04,40,6.40
2015,12,04,04,41,6.40
2015,12,04,04,42,6.40
2015,12,04,04,43,6.40
2015,12,04,04,44,6.50
2015,12,04,04,45,6.60
2015,12,04,04,46,6.60
2015,12,04,04,47,6.60
2015,12,04,04,48,6.60
2015,12,04,04,49,6.60
2015,12,04,04,50,6.50
2015,12,04,04,51,6.50
2015,12,04,04,52,6.50
2015,12,04,04,53,6.50
2015,12,04,04,54,6.60
2015,12,04,04,55,6.60
2015,12,04,04,56,6.70
2015,12,04,04,57,6.70
2015,12,04,04,58,6.70
2015,12,04,04,59,6.70
2015,12,04,05,00,6.70
2015,12,04,05,01,6.70
2015,12,04,05,02,6.70
2015,12,04,05,03,6.70
2015,12,04,05,04,6.70
2015,12,04,05,05,6.70
2015,12,04,05,06,6.70
2015,12,04,05,07,6.70
2015,12,04,05,08,6.70
2015,12,04,05,09,6.70
2015,12,04,05,10,6.70
2015,12,04,05,11,6.70
2015,12,04,05,12,6.70
2015,12,04,05,13,6.70
2015,12,04,05,14,6.80
2015,12,04,05,15,6.80
2015,12,04,05,16,6.80
2015,12,04,05,17,6.80
2015,12,04,05,18,6.90
2015,12,04,05,19,6.80
2015,12,04,05,20,6.90
2015,12,04,05,21,6.90
2015,12,04,05,22,6.90
2015,12,04,05,23,6.80
2015,12,04,05,24,6.80
2015,12,04,05,25,6.80
2015,12,04,05,26,6.80
2015,12,04,05,27,6.80
2015,12,04,05,28,6.80
2015,12,04,05,29,6.80
2015,12,04,05,30,6.80
2015,12,04,05,31,6.80
2015,12,04,05,32,6.80
2015,12,04,05,33,6.70
2015,12,04,05,34,6.70
2015,12,04,05,35,6.70
2015,12,04,05,36,6.80
2015,12,04,05,37,6.70
2015,12,04,05,38,6.70
2015,12,04,05,39,6.70
2015,12,04,05,40,6.70
2015,12,04,05,41,6.70
2015,12,04,05,42,6.70
2015,12,04,05,43,6.70
2015,12,04,05,44,6.70
2015,12,04,05,45,6.70
2015,12,04,05,46,6.70
2015,12,04,05,47,6.70
2015,12,04,05,48,6.60
2015,12,04,05,49,6.60
2015,12,04,05,50,6.60
2015,12,04,05,51,6.60
2015,12,04,05,52,6.60
2015,12,04,05,53,6.60
2015,12,04,05,54,6.50
2015,12,04,05,55,6.50
2015,12,04,05,56,6.50
2015,12,04,05,57,6.40
2015,12,04,05,58,6.40
2015,12,04,05,59,6.40
2015,12,04,06,00,6.40
2015,12,04,06,01,6.40
2015,12,04,06,02,6.50
2015,12,04,06,03,6.50
2015,12,04,06,04,6.50
2015,12,04,06,05,6.60
2015,12,04,06,06,6.60
2015,12,04,06,07,6.60
2015,12,04,06,08,6.60
2015,12,04,06,09,6.60
2015,12,04,06,10,6.60
2015,12,04,06,11,6.60
2015,12,04,06,12,6.60
2015,12,04,06,13,6.60
2015,12,04,06,14,6.60
2015,12,04,06,15,6.60
2015,12,04,06,16,6.70
2015,12,04,06,17,6.70
2015,12,04,06,18,6.70
2015,12,04,06,19,6.70
2015,12,04,06,20,6.70
2015,12,04,06,21,6.70
2015,12,04,06,22,6.70
2015,12,04,06,23,6.70
2015,12,04,06,24,6.70
2015,12,04,06,25,6.80
2015,12,04,06,26,6.80
2015,12,04,06,27,6.80
2015,12,04,06,28,6.80
2015,12,04,06,29,6.80
2015,12,04,06,30,6.80
2015,12,04,06,31,6.80
2015,12,04,06,32,6.80
2015,12,04,06,33,6.80
2015,12,04,06,34,6.80
2015,12,04,06,35,6.80
2015,12,04,06,36,6.80
2015,12,04,06,37,6.80
2015,12,04,06,38,6.70
2015,12,04,06,39,6.70
2015,12,04,06,40,6.70
2015,12,04,06,41,6.70
2015,12,04,06,42,6.60
2015,12,04,06,43,6.60
2015,12,04,06,44,6.60
2015,12,04,06,45,6.50
2015,12,04,06,46,6.50
2015,12,04,06,47,6.50
2015,12,04,06,48,6.40
2015,12,04,06,49,6.40
2015,12,04,06,50,6.40
2015,12,04,06,51,6.40
2015,12,04,06,52,6.40
2015,12,04,06,53,6.30
2015,12,04,06,54,6.30
2015,12,04,06,55,6.30
2015,12,04,06,56,6.30
2015,12,04,06,57,6.30
2015,12,04,06,58,6.30
2015,12,04,06,59,6.30
2015,12,04,07,00,6.20
2015,12,04,07,01,6.20
2015,12,04,07,02,6.10
2015,12,04,07,03,6.10
2015,12,04,07,04,6.10
2015,12,04,07,05,6.00
2015,12,04,07,06,6.00
2015,12,04,07,07,6.00
2015,12,04,07,08,6.00
2015,12,04,07,09,6.00
2015,12,04,07,10,6.00
2015,12,04,07,11,5.90
2015,12,04,07,12,6.00
2015,12,04,07,13,6.00
2015,12,04,07,14,6.00
2015,12,04,07,15,6.00
2015,12,04,07,16,6.00
2015,12,04,07,17,6.00
2015,12,04,07,18,6.00
2015,12,04,07,19,6.00
2015,12,04,07,20,6.00
2015,12,04,07,21,6.00
2015,12,04,07,22,6.00
2015,12,04,07,23,6.00
2015,12,04,07,24,6.00
2015,12,04,07,25,6.00
2015,12,04,07,26,6.10
2015,12,04,07,27,6.00
2015,12,04,07,28,6.00
2015,12,04,07,29,6.00
2015,12,04,07,30,6.00
2015,12,04,07,31,6.00
2015,12,04,07,32,5.90
2015,12,04,07,33,5.90
2015,12,04,07,34,5.90
2015,12,04,07,35,5.90
2015,12,04,07,36,5.90
2015,12,04,07,37,5.90
2015,12,04,07,38,5.90
2015,12,04,07,39,5.90
2015,12,04,07,40,5.90
2015,12,04,07,41,5.90
2015,12,04,07,42,5.90
2015,12,04,07,43,5.90
2015,12,04,07,44,5.90
2015,12,04,07,45,5.80
2015,12,04,07,46,5.80
2015,12,04,07,47,5.80
2015,12,04,07,48,5.80
2015,12,04,07,49,5.80
2015,12,04,07,50,5.80
2015,12,04,07,51,5.80
2015,12,04,07,52,5.80
2015,12,04,07,53,5.80
2015,12,04,07,54,5.80
2015,12,04,07,55,5.80
2015,12,04,07,56,5.90
2015,12,04,07,57,5.90
2015,12,04,07,58,5.90
2015,12,04,07,59,5.90
2015,12,04,08,00,5.90
2015,12,04,08,01,6.00
2015,12,04,08,02,6.00
2015,12,04,08,03,6.00
2015,12,04,08,04,6.00
2015,12,04,08,05,6.00
2015,12,04,08,06,6.00
2015,12,04,08,07,5.90
2015,12,04,08,08,5.90
2015,12,04,08,09,5.90
2015,12,04,08,10,5.90
2015,12,04,08,11,5.90
2015,12,04,08,12,5.90
2015,12,04,08,13,5.90
2015,12,04,08,14,5.90
2015,12,04,08,15,5.80
2015,12,04,08,16,5.80
2015,12,04,08,17,5.80
2015,12,04,08,18,5.80
2015,12,04,08,19,5.80
2015,12,04,08,20,5.80
2015,12,04,08,21,5.80
2015,12,04,08,22,5.80
2015,12,04,08,23,5.80
2015,12,04,08,24,5.80
2015,12,04,08,25,5.90
2015,12,04,08,26,5.90
2015,12,04,08,27,5.90
2015,12,04,08,28,5.90
2015,12,04,08,29,5.90
2015,12,04,08,30,5.90
2015,12,04,08,31,5.90
2015,12,04,08,32,5.90
2015,12,04,08,33,5.90
2015,12,04,08,34,5.90
2015,12,04,08,35,5.90
2015,12,04,08,36,5.90
2015,12,04,08,37,5.90
2015,12,04,08,38,5.90
2015,12,04,08,39,5.90
2015,12,04,08,40,5.90
2015,12,04,08,41,5.90
2015,12,04,08,42,5.90
2015,12,04,08,43,5.90
2015,12,04,08,44,5.90
2015,12,04,08,45,5.90
2015,12,04,08,46,5.90
2015,12,04,08,47,5.90
2015,12,04,08,48,5.90
2015,12,04,08,49,5.90
2015,12,04,08,50,5.90
2015,12,04,08,51,6.00
2015,12,04,08,52,6.00
2015,12,04,08,53,5.90
2015,12,04,08,54,5.90
2015,12,04,08,55,5.90
2015,12,04,08,56,5.90
2015,12,04,08,57,5.90
2015,12,04,08,58,5.90
2015,12,04,08,59,5.90
2015,12,04,09,00,6.00
2015,12,04,09,01,6.00
2015,12,04,09,02,6.00
2015,12,04,09,03,6.00
2015,12,04,09,04,6.00
2015,12,04,09,05,6.00
2015,12,04,09,06,6.00
2015,12,04,09,07,6.00
2015,12,04,09,08,6.00
2015,12,04,09,09,6.00
2015,12,04,09,10,6.10
2015,12,04,09,11,6.10
2015,12,04,09,12,6.10
2015,12,04,09,13,6.10
2015,12,04,09,14,6.10
2015,12,04,09,15,6.10
2015,12,04,09,16,6.10
2015,12,04,09,17,6.10
2015,12,04,09,18,6.20
2015,12,04,09,19,6.20
2015,12,04,09,20,6.20
2015,12,04,09,21,6.20
2015,12,04,09,22,6.20
2015,12,04,09,23,6.20
2015,12,04,09,24,6.30
2015,12,04,09,25,6.30
2015,12,04,09,26,6.30
2015,12,04,09,27,6.30
2015,12,04,09,28,6.40
2015,12,04,09,29,6.40
2015,12,04,09,30,6.40
2015,12,04,09,31,6.50
2015,12,04,09,32,6.50
2015,12,04,09,33,6.60
2015,12,04,09,34,6.60
2015,12,04,09,35,6.70
2015,12,04,09,36,6.70
2015,12,04,09,37,6.80
2015,12,04,09,38,6.80
2015,12,04,09,39,6.80
2015,12,04,09,40,6.80
2015,12,04,09,41,6.90
2015,12,04,09,42,6.90
2015,12,04,09,43,6.90
2015,12,04,09,44,6.90
2015,12,04,09,45,6.90
2015,12,04,09,46,7.00
2015,12,04,09,47,7.00
2015,12,04,09,48,7.00
2015,12,04,09,49,7.00
2015,12,04,09,50,7.00
2015,12,04,09,51,7.10
2015,12,04,09,52,7.10
2015,12,04,09,53,7.10
2015,12,04,09,54,7.10
2015,12,04,09,55,7.10
2015,12,04,09,56,7.10
2015,12,04,09,57,7.10
2015,12,04,09,58,7.10
2015,12,04,09,59,7.00
2015,12,04,10,00,7.00
2015,12,04,10,01,7.00
2015,12,04,10,02,6.90
2015,12,04,10,03,6.90
2015,12,04,10,04,6.90
2015,12,04,10,05,6.90
2015,12,04,10,06,6.90
2015,12,04,10,07,6.90
2015,12,04,10,08,6.90
2015,12,04,10,09,6.90
2015,12,04,10,10,6.90
2015,12,04,10,11,6.80
2015,12,04,10,12,6.80
2015,12,04,10,13,6.80
2015,12,04,10,14,6.80
2015,12,04,10,15,6.80
2015,12,04,10,16,6.80
2015,12,04,10,17,6.80
2015,12,04,10,18,6.80
2015,12,04,10,19,6.80
2015,12,04,10,20,6.70
2015,12,04,10,21,6.70
2015,12,04,10,22,6.70
2015,12,04,10,23,6.70
2015,12,04,10,24,6.70
2015,12,04,10,25,6.70
2015,12,04,10,26,6.70
2015,12,04,10,27,6.60
2015,12,04,10,28,6.60
2015,12,04,10,29,6.50
2015,12,04,10,30,6.40
2015,12,04,10,31,6.40
2015,12,04,10,32,6.30
2015,12,04,10,33,6.30
2015,12,04,10,34,6.20
2015,12,04,10,35,6.20
2015,12,04,10,36,6.20
2015,12,04,10,37,6.20
2015,12,04,10,38,6.10
2015,12,04,10,39,6.10
2015,12,04,10,40,6.10
2015,12,04,10,41,6.10
2015,12,04,10,42,6.10
2015,12,04,10,43,6.10
2015,12,04,10,44,6.10
2015,12,04,10,45,6.10
2015,12,04,10,46,6.00
2015,12,04,10,47,6.00
2015,12,04,10,48,6.10
2015,12,04,10,49,6.00
2015,12,04,10,50,6.00
2015,12,04,10,51,6.00
2015,12,04,10,52,6.10
2015,12,04,10,53,6.10
2015,12,04,10,54,6.10
2015,12,04,10,55,6.10
2015,12,04,10,56,6.10
2015,12,04,10,57,6.10
2015,12,04,10,58,6.10
2015,12,04,10,59,6.20
2015,12,04,11,00,6.20
2015,12,04,11,01,6.20
2015,12,04,11,02,6.20
2015,12,04,11,03,6.30
2015,12,04,11,04,6.30
2015,12,04,11,05,6.30
2015,12,04,11,06,6.40
2015,12,04,11,07,6.40
2015,12,04,11,08,6.40
2015,12,04,11,09,6.50
2015,12,04,11,10,6.50
2015,12,04,11,11,6.50
2015,12,04,11,12,6.50
2015,12,04,11,13,6.60
2015,12,04,11,14,6.60
2015,12,04,11,15,6.60
2015,12,04,11,16,6.60
2015,12,04,11,17,6.60
2015,12,04,11,18,6.70
2015,12,04,11,19,6.70
2015,12,04,11,20,6.70
2015,12,04,11,21,6.70
2015,12,04,11,22,6.80
2015,12,04,11,23,6.80
2015,12,04,11,24,6.80
2015,12,04,11,25,6.90
2015,12,04,11,26,6.90
2015,12,04,11,27,6.90
2015,12,04,11,28,7.00
2015,12,04,11,29,7.00
2015,12,04,11,30,7.10
2015,12,04,11,31,7.10
2015,12,04,11,32,7.20
2015,12,04,11,33,7.20
2015,12,04,11,34,7.30
2015,12,04,11,35,7.30
2015,12,04,11,36,7.30
2015,12,04,11,37,7.40
2015,12,04,11,38,7.50
2015,12,04,11,39,7.50
2015,12,04,11,40,7.60
2015,12,04,11,41,7.60
2015,12,04,11,42,7.60
2015,12,04,11,43,7.70
2015,12,04,11,44,7.70
2015,12,04,11,45,7.70
2015,12,04,11,46,7.70
2015,12,04,11,47,7.80
2015,12,04,11,48,7.80
2015,12,04,11,49,7.80
2015,12,04,11,50,7.90
2015,12,04,11,51,7.90
2015,12,04,11,52,8.00
2015,12,04,11,53,8.00
2015,12,04,11,54,8.10
2015,12,04,11,55,8.10
2015,12,04,11,56,8.20
2015,12,04,11,57,8.30
2015,12,04,11,58,8.40
2015,12,04,11,59,8.50
2015,12,04,12,00,8.50
2015,12,04,12,01,8.60
2015,12,04,12,02,8.70
2015,12,04,12,03,8.80
2015,12,04,12,04,8.80
2015,12,04,12,05,8.80
2015,12,04,12,06,8.80
2015,12,04,12,07,8.90
2015,12,04,12,08,8.90
2015,12,04,12,09,8.90
2015,12,04,12,10,8.90
2015,12,04,12,11,8.90
2015,12,04,12,12,8.90
2015,12,04,12,13,8.90
2015,12,04,12,14,8.90
2015,12,04,12,15,8.90
2015,12,04,12,16,8.90
2015,12,04,12,17,8.90
2015,12,04,12,18,8.90
2015,12,04,12,19,8.90
2015,12,04,12,20,8.90
2015,12,04,12,21,8.90
2015,12,04,12,22,8.90
2015,12,04,12,23,8.90
2015,12,04,12,24,8.90
2015,12,04,12,25,8.80
2015,12,04,12,26,8.80
2015,12,04,12,27,8.90
2015,12,04,12,28,8.80
2015,12,04,12,29,8.80
2015,12,04,12,30,8.80
2015,12,04,12,31,8.80
2015,12,04,12,32,8.80
2015,12,04,12,33,8.90
2015,12,04,12,34,8.90
2015,12,04,12,35,8.90
2015,12,04,12,36,9.00
2015,12,04,12,37,9.00
2015,12,04,12,38,9.00
2015,12,04,12,39,9.10
2015,12,04,12,40,9.10
2015,12,04,12,41,9.10
2015,12,04,12,42,9.10
2015,12,04,12,43,9.10
2015,12,04,12,44,9.10
2015,12,04,12,45,9.10
2015,12,04,12,46,9.10
2015,12,04,12,47,9.10
2015,12,04,12,48,9.10
2015,12,04,12,49,9.10
2015,12,04,12,50,9.10
2015,12,04,12,51,9.10
2015,12,04,12,52,9.10
2015,12,04,12,53,9.10
2015,12,04,12,54,9.10
2015,12,04,12,55,9.20
2015,12,04,12,56,9.10
2015,12,04,12,57,9.20
2015,12,04,12,58,9.20
2015,12,04,12,59,9.20
2015,12,04,13,00,9.20
2015,12,04,13,01,9.30
2015,12,04,13,02,9.30
2015,12,04,13,03,9.30
2015,12,04,13,04,9.30
2015,12,04,13,05,9.30
2015,12,04,13,06,9.30
2015,12,04,13,07,9.30
2015,12,04,13,08,9.40
2015,12,04,13,09,9.40
2015,12,04,13,10,9.40
2015,12,04,13,11,9.40
2015,12,04,13,12,9.40
2015,12,04,13,13,9.40
2015,12,04,13,14,9.50
2015,12,04,13,15,9.40
2015,12,04,13,16,9.40
2015,12,04,13,17,9.40
2015,12,04,13,18,9.40
2015,12,04,13,19,9.40
2015,12,04,13,20,9.40
2015,12,04,13,21,9.40
2015,12,04,13,22,9.40
2015,12,04,13,23,9.40
2015,12,04,13,24,9.40
2015,12,04,13,25,9.40
2015,12,04,13,26,9.40
2015,12,04,13,27,9.40
2015,12,04,13,28,9.40
2015,12,04,13,29,9.40
2015,12,04,13,30,9.50
2015,12,04,13,31,9.50
2015,12,04,13,32,9.60
2015,12,04,13,33,9.60
2015,12,04,13,34,9.60
2015,12,04,13,35,9.60
2015,12,04,13,36,9.60
2015,12,04,13,37,9.60
2015,12,04,13,38,9.60
2015,12,04,13,39,9.50
2015,12,04,13,40,9.50
2015,12,04,13,41,9.40
2015,12,04,13,42,9.40
2015,12,04,13,43,9.30
2015,12,04,13,44,9.30
2015,12,04,13,45,9.20
2015,12,04,13,46,9.20
2015,12,04,13,47,9.20
2015,12,04,13,48,9.10
2015,12,04,13,49,9.10
2015,12,04,13,50,9.10
2015,12,04,13,51,9.10
2015,12,04,13,52,9.10
2015,12,04,13,53,9.20
2015,12,04,13,54,9.20
2015,12,04,13,55,9.30
2015,12,04,13,56,9.30
2015,12,04,13,57,9.30
2015,12,04,13,58,9.30
2015,12,04,13,59,9.30
2015,12,04,14,00,9.30
2015,12,04,14,01,9.30
2015,12,04,14,02,9.30
2015,12,04,14,03,9.30
2015,12,04,14,04,9.20
2015,12,04,14,05,9.20
2015,12,04,14,06,9.10
2015,12,04,14,07,9.00
2015,12,04,14,08,8.90
2015,12,04,14,09,8.80
2015,12,04,14,10,8.80
2015,12,04,14,11,8.80
2015,12,04,14,12,8.70
2015,12,04,14,13,8.70
2015,12,04,14,14,8.70
2015,12,04,14,15,8.70
2015,12,04,14,16,8.70
2015,12,04,14,17,8.70
2015,12,04,14,18,8.70
2015,12,04,14,19,8.70
2015,12,04,14,20,8.70
2015,12,04,14,21,8.70
2015,12,04,14,22,8.70
2015,12,04,14,23,8.70
2015,12,04,14,24,8.70
2015,12,04,14,25,8.70
2015,12,04,14,26,8.70
2015,12,04,14,27,8.80
2015,12,04,14,28,8.80
2015,12,04,14,29,8.80
2015,12,04,14,30,8.70
2015,12,04,14,31,8.70
2015,12,04,14,32,8.60
2015,12,04,14,33,8.60
2015,12,04,14,34,8.60
2015,12,04,14,35,8.50
2015,12,04,14,36,8.40
2015,12,04,14,37,8.40
2015,12,04,14,38,8.30
2015,12,04,14,39,8.30
2015,12,04,14,40,8.30
2015,12,04,14,41,8.20
2015,12,04,14,42,8.20
2015,12,04,14,43,8.20
2015,12,04,14,44,8.20
2015,12,04,14,45,8.10
2015,12,04,14,46,8.10
2015,12,04,14,47,8.00
2015,12,04,14,48,8.00
2015,12,04,14,49,7.90
2015,12,04,14,50,7.90
2015,12,04,14,51,7.90
2015,12,04,14,52,7.90
2015,12,04,14,53,7.80
2015,12,04,14,54,7.80
2015,12,04,14,55,7.80
2015,12,04,14,56,7.80
2015,12,04,14,57,7.80
2015,12,04,14,58,7.80
2015,12,04,14,59,7.80
2015,12,04,15,00,7.80
2015,12,04,15,01,7.70
2015,12,04,15,02,7.70
2015,12,04,15,03,7.70
2015,12,04,15,04,7.70
2015,12,04,15,05,7.70
2015,12,04,15,06,7.70
2015,12,04,15,07,7.70
2015,12,04,15,08,7.70
2015,12,04,15,09,7.70
2015,12,04,15,10,7.70
2015,12,04,15,11,7.70
2015,12,04,15,12,7.70
2015,12,04,15,13,7.70
2015,12,04,15,14,7.70
2015,12,04,15,15,7.70
2015,12,04,15,16,7.70
2015,12,04,15,17,7.70
2015,12,04,15,18,7.70
2015,12,04,15,19,7.70
2015,12,04,15,20,7.70
2015,12,04,15,21,7.70
2015,12,04,15,22,7.70
2015,12,04,15,23,7.70
2015,12,04,15,24,7.70
2015,12,04,15,25,7.70
2015,12,04,15,26,7.70
2015,12,04,15,27,7.70
2015,12,04,15,28,7.70
2015,12,04,15,29,7.70
2015,12,04,15,30,7.70
2015,12,04,15,31,7.60
2015,12,04,15,32,7.60
2015,12,04,15,33,7.60
2015,12,04,15,34,7.60
2015,12,04,15,35,7.50
2015,12,04,15,36,7.50
2015,12,04,15,37,7.50
2015,12,04,15,38,7.40
2015,12,04,15,39,7.40
2015,12,04,15,40,7.40
2015,12,04,15,41,7.40
2015,12,04,15,42,7.40
2015,12,04,15,43,7.30
2015,12,04,15,44,7.30
2015,12,04,15,45,7.30
2015,12,04,15,46,7.30
2015,12,04,15,47,7.30
2015,12,04,15,48,7.20
2015,12,04,15,49,7.20
2015,12,04,15,50,7.20
2015,12,04,15,51,7.20
2015,12,04,15,52,7.10
2015,12,04,15,53,7.10
2015,12,04,15,54,7.10
2015,12,04,15,55,7.10
2015,12,04,15,56,7.00
2015,12,04,15,57,7.00
2015,12,04,15,58,7.00
2015,12,04,15,59,6.90
2015,12,04,16,00,6.90
2015,12,04,16,01,6.90
2015,12,04,16,02,6.90
2015,12,04,16,03,6.90
2015,12,04,16,04,6.80
2015,12,04,16,05,6.80
2015,12,04,16,06,6.80
2015,12,04,16,07,6.80
2015,12,04,16,08,6.80
2015,12,04,16,09,6.80
2015,12,04,16,10,6.70
2015,12,04,16,11,6.70
2015,12,04,16,12,6.70
2015,12,04,16,13,6.70
2015,12,04,16,14,6.70
2015,12,04,16,15,6.70
2015,12,04,16,16,6.70
2015,12,04,16,17,6.70
2015,12,04,16,18,6.60
2015,12,04,16,19,6.60
2015,12,04,16,20,6.60
2015,12,04,16,21,6.60
2015,12,04,16,22,6.60
2015,12,04,16,23,6.60
2015,12,04,16,24,6.60
2015,12,04,16,25,6.60
2015,12,04,16,26,6.60
2015,12,04,16,27,6.60
2015,12,04,16,28,6.60
2015,12,04,16,29,6.60
2015,12,04,16,30,6.60
2015,12,04,16,31,6.60
2015,12,04,16,32,6.70
2015,12,04,16,33,6.70
2015,12,04,16,34,6.70
2015,12,04,16,35,6.70
2015,12,04,16,36,6.70
2015,12,04,16,37,6.70
2015,12,04,16,38,6.70
2015,12,04,16,39,6.70
2015,12,04,16,40,6.70
2015,12,04,16,41,6.70
2015,12,04,16,42,6.70
2015,12,04,16,43,6.70
2015,12,04,16,44,6.70
2015,12,04,16,45,6.70
2015,12,04,16,46,6.70
2015,12,04,16,47,6.70
2015,12,04,16,48,6.70
2015,12,04,16,49,6.70
2015,12,04,16,50,6.70
2015,12,04,16,51,6.70
2015,12,04,16,52,6.70
2015,12,04,16,53,6.70
2015,12,04,16,54,6.70
2015,12,04,16,55,6.70
2015,12,04,16,56,6.70
2015,12,04,16,57,6.70
2015,12,04,16,58,6.70
2015,12,04,16,59,6.70
2015,12,04,17,00,6.70
2015,12,04,17,01,6.60
2015,12,04,17,02,6.60
2015,12,04,17,03,6.60
2015,12,04,17,04,6.60
2015,12,04,17,05,6.60
2015,12,04,17,06,6.60
2015,12,04,17,07,6.60
2015,12,04,17,08,6.60
2015,12,04,17,09,6.60
2015,12,04,17,10,6.60
2015,12,04,17,11,6.60
2015,12,04,17,12,6.60
2015,12,04,17,13,6.60
2015,12,04,17,14,6.60
2015,12,04,17,15,6.60
2015,12,04,17,16,6.60
2015,12,04,17,17,6.60
2015,12,04,17,18,6.60
2015,12,04,17,19,6.60
2015,12,04,17,20,6.60
2015,12,04,17,21,6.60
2015,12,04,17,22,6.60
2015,12,04,17,23,6.60
2015,12,04,17,24,6.60
2015,12,04,17,25,6.60
2015,12,04,17,26,6.60
2015,12,04,17,27,6.60
2015,12,04,17,28,6.60
2015,12,04,17,29,6.60
2015,12,04,17,30,6.60
2015,12,04,17,31,6.60
2015,12,04,17,32,6.60
2015,12,04,17,33,6.60
2015,12,04,17,34,6.60
2015,12,04,17,35,6.60
2015,12,04,17,36,6.60
2015,12,04,17,37,6.50
2015,12,04,17,38,6.50
2015,12,04,17,39,6.50
2015,12,04,17,40,6.50
2015,12,04,17,41,6.50
2015,12,04,17,42,6.50
2015,12,04,17,43,6.50
2015,12,04,17,44,6.50
2015,12,04,17,45,6.50
2015,12,04,17,46,6.50
2015,12,04,17,47,6.50
2015,12,04,17,48,6.50
2015,12,04,17,49,6.50
2015,12,04,17,50,6.60
2015,12,04,17,51,6.60
2015,12,04,17,52,6.60
2015,12,04,17,53,6.60
2015,12,04,17,54,6.60
2015,12,04,17,55,6.60
2015,12,04,17,56,6.60
2015,12,04,17,57,6.60
2015,12,04,17,58,6.60
2015,12,04,17,59,6.60
2015,12,04,18,00,6.60
2015,12,04,18,01,6.60
2015,12,04,18,02,6.60
2015,12,04,18,03,6.60
2015,12,04,18,04,6.60
2015,12,04,18,05,6.60
2015,12,04,18,06,6.60